Hatteras, NC

6:59 AM EDT on October 21, 2019 (GMT -0400)
Mitchell

Weather History for KHSE - August, 2019

Change the Weather History Date:

Friday, August 23, 2019

  Actual Average Record
Temperature  
Mean Temperature 84 °F 78 °F  
Max Temperature 88 °F 84 °F 94 °F (1968)
Min Temperature 80 °F 73 °F 62 °F (1985)
Degree Days  
Heating Degree Days 0 0  
Month to date heating degree days 0 0  
Since 1 June heating degree days 0 3  
Since 1 July heating degree days 0 0  
Cooling Degree Days 19 13  
Month to date cooling degree days 398 316  
Year to date cooling degree days 1698 1204  
Since 1 June cooling degree days 1316 1061  
Growing Degree Days 34 (Base 50)    
Moisture  
Dew Point 78 °F    
Average Humidity 83    
Maximum Humidity 94    
Minimum Humidity 72    
Precipitation  
Precipitation 0.00 in 0.24 in 2.01 in (1967)
Month to date precipitation 7.02 4.95  
Year to date precipitation 38.74 35.21  
Snow  
Snow 0.00 in - - ()
Month to date snowfall 0.0  
Since 1 July snowfall 0.0  
Snow Depth 0.00 in    
Sea Level Pressure  
Sea Level Pressure 30.01 in    
Wind  
Wind Speed 10 mph ()    
Max Wind Speed 17 mph    
Max Gust Speed 26 mph    
Visibility 9.9 miles    
Events      
T = Trace of Precipitation, MM = Missing Value Source: Averaged Metar Reports

Daily Weather History Graph

Daily Weather History Graph

Search for Another Location

Airport or City:

Astronomy

Aug. 23, 2019 Rise Set
Actual Time 6:28 AM EDT 7:41 PM EDT
Civil Twilight 6:01 AM EDT 8:08 PM EDT
Nautical Twilight 5:30 AM EDT 8:39 PM EDT
Astronomical Twilight 4:57 AM EDT 9:12 PM EDT
Moon No Moon Rise 1:46 PM EDT (8/23)
Length of Visible Light 14h 06m
Length of Day
13h 13m
Waning Gibbous, 50% of the Moon is Illuminated
Aug 23
Waning Gibbous
Aug 30
New
Sep 5
First Quarter
Sep 14
Full
Sep 21
Last Quarter

Hourly Weather History & Observations

Time (EDT) Temp. Heat Index Dew Point Humidity Pressure Visibility Wind Dir Wind Speed Gust Speed Precip Events Conditions
12:51 AM 82.0 °F 91.0 °F 78.1 °F 88% 30.03 in 10.0 mi SW 10.4 mph - N/A   Clear
1:51 AM 82.0 °F 91.0 °F 78.1 °F 88% 30.03 in 10.0 mi WSW 9.2 mph - N/A   Partly Cloudy
2:51 AM 82.0 °F 91.0 °F 78.1 °F 88% 30.03 in 10.0 mi WSW 10.4 mph - N/A   Scattered Clouds
3:51 AM 82.0 °F 91.0 °F 78.1 °F 88% 30.01 in 10.0 mi WSW 11.5 mph - N/A   Clear
5:51 AM 82.0 °F 91.0 °F 78.1 °F 88% 30.02 in 10.0 mi SW 10.4 mph - N/A   Clear
6:51 AM 81.0 °F 88.6 °F 78.1 °F 91% 30.04 in 9.0 mi WSW 9.2 mph - N/A   Clear
7:51 AM 82.9 °F 92.8 °F 78.1 °F 85% 30.05 in 10.0 mi WSW 9.2 mph - N/A   Clear
8:51 AM 82.9 °F 92.8 °F 78.1 °F 85% 30.05 in 10.0 mi WSW 9.2 mph - N/A   Clear
9:51 AM 86.0 °F 99.3 °F 79.0 °F 79% 30.06 in 10.0 mi SW 10.4 mph - N/A   Partly Cloudy
10:51 AM 86.0 °F 99.3 °F 79.0 °F 79% 30.06 in 10.0 mi SW 11.5 mph - N/A   Clear
11:51 AM 82.9 °F 89.4 °F 73.9 °F 74% 30.04 in 10.0 mi WSW 11.5 mph 18.4 mph N/A   Clear
12:51 PM 84.0 °F 92.6 °F 75.9 °F 76% 30.03 in 10.0 mi SSW 13.8 mph 17.3 mph N/A   Clear
1:51 PM 87.1 °F 98.8 °F 77.0 °F 72% 30.02 in 10.0 mi SSW 11.5 mph - N/A   Clear
2:51 PM 87.1 °F 99.8 °F 78.1 °F 74% 30.01 in 10.0 mi SSW 15.0 mph - N/A   Clear
3:51 PM 87.1 °F 99.8 °F 78.1 °F 74% 29.99 in 10.0 mi SSW 12.7 mph 23.0 mph N/A   Clear
4:51 PM 87.1 °F 99.8 °F 78.1 °F 74% 29.98 in 10.0 mi SSW 15.0 mph 23.0 mph N/A   Clear
5:51 PM 84.9 °F 96.6 °F 78.1 °F 80% 29.96 in 10.0 mi SSW 13.8 mph - N/A   Clear
6:51 PM 84.0 °F 94.8 °F 78.1 °F 82% 29.94 in 9.0 mi SSW 16.1 mph 23.0 mph N/A   Clear
7:51 PM 82.9 °F 92.8 °F 78.1 °F 85% 29.97 in 10.0 mi SW 13.8 mph 21.9 mph N/A   Clear
8:51 PM 82.9 °F 92.8 °F 78.1 °F 85% 29.99 in 10.0 mi SW 13.8 mph - N/A   Clear
9:51 PM 82.9 °F 92.8 °F 78.1 °F 85% 30.00 in 10.0 mi WSW 11.5 mph - N/A   Clear
10:26 PM 82.9 °F 92.8 °F 78.1 °F 85% 30.00 in 10.0 mi WSW 6.9 mph - N/A   Mostly Cloudy
10:41 PM 82.0 °F 91.0 °F 78.1 °F 88% 30.01 in 10.0 mi WSW 6.9 mph - N/A   Partly Cloudy
10:51 PM 82.0 °F 91.0 °F 78.1 °F 88% 30.02 in 9.0 mi WSW 9.2 mph - N/A   Partly Cloudy
11:51 PM 82.0 °F 91.0 °F 78.1 °F 88% 30.01 in 10.0 mi WSW 8.1 mph - N/A   Partly Cloudy